COSMOS 2535 DEB

Satellite information

Favourite Embed

Satellite Type and Status

DEBRISIN ORBIT

Key statistics

Satellite COSMOS 2535 DEB at a glance.

Uptime

2249

Days in orbit

Revolutions

≈ 14.8

Per day

Orbit

SSO

Sun Synchronous Orbit

Inclination

97.7

Latest

Satellite identification and parameters

Extended collection of information and parameters for COSMOS 2535 DEB.

Object identification

Identified? True

Debris? True

Object name: COSMOS 2535 DEB

International designator: 2019-039K

Object number (NORAD): 44633

Object ID (CCSDS): 44633

Country: COMMONWEALTH OF INDEPENDENT STATES (CIS)

Current information (Y/N): Y

RCS size: SMALL

Orbital parameters

Period: 97.224 minutes

Inclination: 97.707 deg

SMA: 7003.924 km

Apoapsis: 659.812 km

Periapsis: 591.766 km

RAAN: 240.0101 deg

Eccentricy: 0.00485776

Argument of periapsis: 263.8357 deg

Mean anomaly: 95.7321 deg

Mean motion: 14.811213 rev/day

Mean motion (dot): 0.00003867 rev/day2

B* drag term: 0.00049444886 1/REarth

Two-line elements (TLE)

Creation date: Sept. 3, 2025, 10:15 a.m.

Reference frame: TEME

Reference center: EARTH

Epoch: Sept. 3, 2025, 6:11 a.m. UTC

TLE line 0: 0 COSMOS 2535 DEB

TLE line 1: 1 44633U 19039K 25246.25778231 .00003867 00000-0 49445-3 0 9999

TLE line 2: 2 44633 97.7070 240.0101 0048578 263.8357 95.7321 14.81121300318196

Live tracking on map

Real-time ground track for satellite COSMOS 2535 DEB.

In-orbit conjunctions

A list of the most updated potential collisions computed for object COSMOS 2535 DEB.

Target Orbit TCA Probability of collision Miss distance Type
CZ-6A DEB LEO 2025-05-18 01:53:34 0.0004745051 78.0 (m) DEBRIS

Associated space launch

Four satellites in the interests of the Ministry of Defense of Russia.

COSMOS 2535 DEB was lifted into orbit during the mission ‘Soyuz 2.1v/Volga | Kosmos 2535, Kosmos 2536, Kosmos 2537, Kosmos 2538’, on board a Soyuz 2.1v space rocket.

The launch took place on July 10, 2019, 5:14 p.m. from 43/4 (43R).

For more information about the launch, click the button.

Launch to space Soyuz 2.1v/Volga | Kosmos 2535, Kosmos 2536, Kosmos 2537, Kosmos 2538
Soyuz 2.1v/Volga | Kosmos 2535, Kosmos 2536, Kosmos 2537, Kosmos 2538

Agency: N/A

Status: Launch Successful

Launch date: July 10, 2019, 5:14 p.m. UTC

Rocket: Soyuz 2.1v

Launch pad: 43/4 (43R)

Location: Plesetsk Cosmodrome, Russian Federation

...

Latest news about this satellite

News about space launch
Four Russian military satellites launched from Plesetsk Cosmodrome


Newsletter sign-up

Weekly statistics, charts and insights to help you stay on top of the space industry.